Tracking 25620 objects as of 18-May-2022
HD Live streaming from Space Station
objects crossing your sky now

ARIANE 5 R/B

Track ARIANE 5 R/B now!
10-day predictions


NORAD ID: 36034
Int'l Code: 2009-058C
Perigee: 210.2 km
Apogee: 23,761.1 km
Inclination: 6.5 °
Period: 412.5 minutes
Semi major axis: 18356 km
RCS: 21.239 m2 (large)
Launch date: October 29, 2009
Source: France (FR)
Launch site: FRENCH GUIANA (FRGUI)

Note: This is a ROCKET BODY
aabbcc
Your satellite tracking list
Your tracking list is empty




NASA's NSSDC Master Catalog

Two Line Element Set (TLE):
1 36034U 09058C   22137.87150744  .00032762  00000-0  15208-2 0  9997
2 36034   6.4894  28.9954 6414813  38.8999 353.0387  3.49070100136136
Source of the keplerian elements: AFSPC